Volver al catálogo

COSMOS 1275 DEB

ActivoPO
NORAD 42149·DEBRIS·🇷🇺 Russia

Lanzado Jun 4, 1981 desde Plesetsk Cosmodrome

Loading…

Próximos Pases (próximas 24 horas)

TLE

ObsoletoSource: Space-Track

Época: Sep 2, 2026, 19:53 UTC

1 42149U 81053RM  26245.82847681  .00000967  00000-0  74517-3 0  9999
2 42149  82.8068 281.8630 0082839 324.1647  35.3976 13.90494992111353

Sigue COSMOS 1275 DEB en tiempo real con AllMySat

Download on the App Store